Location: Clarks Summit,Pa.
(41.5000°N, 75.6000°W)
Time: 20:51:15
(UTC-05:00)

Envisat - Pass Details

Date: 08 December 2021
Orbit: 764 x 766 km, 98.2° (Epoch: 16 January)

Event Time Altitude Azimuth Distance (km) Brightness Sun altitude
Rises 04:44:23 0° 17° (NNE) 3,241 6.4 -27.6°
Reaches altitude 10° 04:46:45 10° 21° (NNE) 2,310 5.6 -27.2°
Maximum altitude 04:51:46 57° 100° (E) 896 3.5 -26.3°
Drops below altitude 10° 04:56:44 10° 179° (S) 2,292 5.6 -25.4°
Sets 04:59:04 0° 184° (S) 3,214 6.3 -24.9°
